Location: Eberbach
(49.4690°N, 8.9930°E)
Time: 07:10:12
(UTC+02:00)

ISS - Pass Details

Date: 02 October 2021
Orbit: 417 x 423 km, 51.6° (Epoch: 27 October)

Event Time Altitude Azimuth Distance (km) Brightness Sun altitude
Rises 21:05:56 0° 286° (WNW) 2,366 1.6 -21.0°
Reaches altitude 10° 21:08:18 10° 272° (W) 1,500 0.1 -21.3°
Maximum altitude 21:11:02 23° 217° (SW) 939 -1.9 -21.7°
Enters shadow 21:11:11 23° 213° (SSW) 942 -1.9 -21.8°
